Overview Statistics Trail Chart Weather Telemetry Raw packets
 

This is the latest recevied weather packets stored in our database for station/object W4MLN-3. If no packets are shown the sender has not sent any weather packets the latest 10 day(s).

<< 21 22 23 24 25 26 27 >>
Time Temp. Humidity Pressure Rain* Wind** Luminosity Snow
1788357603 26.67° C 70% 1024.2 hPa 0 mm - - -
1788357343 26.67° C 72% 1024.2 hPa 0 mm - - -
1788357004 26.11° C 73% 1024.2 hPa 0 mm - - -
1788356703 25.56° C 76% 1024.3 hPa 0 mm - - -
1788356403 25.56° C 78% 1024.3 hPa 0 mm - - -
1788356124 25° C 77% 1024.3 hPa 0 mm - - -
1788355803 24.44° C 80% 1024.3 hPa 0 mm - - -
1788355503 23.89° C 81% 1024.4 hPa 0 mm - - -
1788355203 23.33° C 82% 1024.5 hPa 0 mm - - -
1788354903 23.33° C 84% 1024.3 hPa 0 mm - - -
1788354603 22.78° C 85% 1024.4 hPa 0 mm - - -
1788354324 22.22° C 88% 1024.4 hPa 0 mm - - -
1788354024 21.67° C 89% 1024.4 hPa 0 mm - - -
1788353703 21.11° C 91% 1024.4 hPa 0 mm - - -
1788353425 21.11° C 95% 1024.3 hPa 0 mm - - -
1788353103 20.56° C 95% 1024.4 hPa 0 mm - - -
1788352803 20° C 95% 1024.3 hPa 0 mm - - -
1788352503 20° C 96% 1024.3 hPa 0 mm - - -
1788352203 19.44° C 96% 1024.4 hPa 0 mm - - -
1788351924 19.44° C 96% 1024.4 hPa 0 mm - - -
1788351603 19.44° C 96% 1024.3 hPa 0 mm - - -
1788351303 19.44° C 96% 1024.3 hPa 0 mm - - -
1788351024 19.44° C 96% 1024.2 hPa 0 mm - - -
1788350703 18.89° C 96% 1024.1 hPa 0 mm - - -
1788350403 18.89° C 96% 1024.1 hPa 0 mm - - -

* Rain latest hour (hover to see other rain measurements)
** Current wind speed in m/s (hover to see current wind gust speed)